DAL1556 KOMA-KDTW

Flight info

Callsign DAL1556
Flight time 1h 22m
Altitude 35000
Route DSM J144 DBQ PORZL RKCTY2
Aircraft A321/M-SDE3FGHIRWY/LB1

Departure

Time 2026-05-05 21:37
Airport Eppley Airfield (KOMA)

Arrival

Time 2026-05-05 23:00
Airport Detroit Metropolitan Wayne County Airport (KDTW)
Time Latitude Longitude Altitude Speed Heading
2026-05-05 21:15 41.29818 -95.89767 985 ft 0 kts 266°
2026-05-05 21:27 41.29818 -95.89753 992 ft 3 kts 266°
2026-05-05 21:27 41.29819 -95.89728 988 ft 3 kts 255°
2026-05-05 21:28 41.29830 -95.89707 989 ft 3 kts 192°
2026-05-05 21:28 41.29835 -95.89706 991 ft 0 kts 185°
2026-05-05 21:30 41.29833 -95.89706 990 ft 2 kts 185°
2026-05-05 21:31 41.29779 -95.89693 988 ft 6 kts 169°
2026-05-05 21:31 41.29751 -95.89691 989 ft 6 kts 178°
2026-05-05 21:31 41.29687 -95.89690 987 ft 8 kts 181°
2026-05-05 21:31 41.29653 -95.89690 991 ft 7 kts 181°
2026-05-05 21:32 41.29609 -95.89691 992 ft 6 kts 181°
2026-05-05 21:32 41.29573 -95.89690 989 ft 5 kts 170°
2026-05-05 21:32 41.29559 -95.89657 989 ft 7 kts 96°
2026-05-05 21:32 41.29594 -95.89610 993 ft 7 kts
2026-05-05 21:33 41.29633 -95.89583 990 ft 6 kts 63°
2026-05-05 21:33 41.29636 -95.89541 985 ft 3 kts 86°
2026-05-05 21:33 41.29635 -95.89484 986 ft 12 kts 90°
2026-05-05 21:33 41.29635 -95.89373 985 ft 12 kts 90°
2026-05-05 21:34 41.29656 -95.89280 989 ft 10 kts 52°
2026-05-05 21:34 41.29691 -95.89196 988 ft 13 kts 85°
2026-05-05 21:34 41.29635 -95.89128 991 ft 11 kts 146°
2026-05-05 21:34 41.29578 -95.89074 985 ft 11 kts 144°
2026-05-05 21:35 41.29498 -95.88997 986 ft 15 kts 144°
2026-05-05 21:35 41.29417 -95.88919 986 ft 14 kts 144°
2026-05-05 21:35 41.29343 -95.88850 993 ft 12 kts 145°
2026-05-05 21:35 41.29274 -95.88785 986 ft 12 kts 144°
2026-05-05 21:36 41.29227 -95.88713 991 ft 10 kts 94°
2026-05-05 21:36 41.29263 -95.88641 989 ft 10 kts 33°
2026-05-05 21:36 41.29326 -95.88653 987 ft 11 kts 324°
2026-05-05 21:36 41.29483 -95.88803 989 ft 58 kts 324°
2026-05-05 21:37 41.29983 -95.89278 992 ft 116 kts 324°
2026-05-05 21:37 41.30766 -95.90015 1016 ft 155 kts 325°
2026-05-05 21:37 41.31644 -95.90846 1631 ft 155 kts 325°
2026-05-05 21:37 41.32638 -95.91365 2292 ft 159 kts
2026-05-05 21:38 41.33598 -95.90636 2856 ft 172 kts 52°
2026-05-05 21:38 41.33819 -95.88977 3125 ft 203 kts 101°
2026-05-05 21:38 41.33295 -95.87122 3347 ft 224 kts 109°
2026-05-05 21:38 41.32683 -95.85108 3511 ft 248 kts 110°
2026-05-05 21:39 41.32010 -95.82869 3876 ft 271 kts 110°
2026-05-05 21:39 41.31309 -95.80533 4538 ft 279 kts 109°
2026-05-05 21:39 41.30774 -95.78060 5349 ft 279 kts 91°
2026-05-05 21:39 41.30902 -95.75500 6098 ft 279 kts 79°
2026-05-05 21:40 41.31119 -95.72920 6859 ft 282 kts 81°
2026-05-05 21:40 41.31301 -95.70302 7551 ft 287 kts 82°
2026-05-05 21:40 41.31472 -95.67629 8207 ft 292 kts 82°
2026-05-05 21:40 41.31648 -95.64909 8851 ft 298 kts 82°
2026-05-05 21:41 41.31831 -95.62140 9495 ft 303 kts 82°
2026-05-05 21:41 41.32021 -95.59315 10104 ft 309 kts 82°
2026-05-05 21:41 41.32222 -95.56383 10350 ft 329 kts 82°
2026-05-05 21:41 41.32440 -95.53250 10479 ft 351 kts 82°
2026-05-05 21:42 41.32670 -95.49921 10609 ft 372 kts 83°
2026-05-05 21:42 41.32909 -95.46414 10839 ft 387 kts 83°
2026-05-05 21:42 41.33152 -95.42815 11321 ft 394 kts 83°
2026-05-05 21:42 41.33398 -95.39156 11851 ft 400 kts 83°
2026-05-05 21:43 41.33645 -95.35447 12398 ft 405 kts 84°
2026-05-05 21:43 41.33891 -95.31691 12923 ft 410 kts 84°
2026-05-05 21:43 41.34139 -95.27879 13436 ft 416 kts 84°
2026-05-05 21:43 41.34390 -95.24017 13929 ft 421 kts 84°
2026-05-05 21:44 41.34648 -95.20109 14375 ft 426 kts 84°
2026-05-05 21:44 41.34907 -95.16163 14868 ft 430 kts 84°
2026-05-05 21:44 41.35169 -95.12181 15341 ft 434 kts 85°
2026-05-05 21:44 41.35432 -95.08158 15811 ft 438 kts 85°
2026-05-05 21:45 41.35692 -95.04113 16268 ft 442 kts 85°
2026-05-05 21:45 41.35951 -95.00011 16720 ft 446 kts 85°
2026-05-05 21:45 41.36209 -94.95890 17159 ft 450 kts 85°
2026-05-05 21:45 41.36472 -94.91723 17584 ft 454 kts 85°
2026-05-05 21:46 41.36738 -94.87517 18010 ft 458 kts 86°
2026-05-05 21:46 41.37003 -94.83275 18428 ft 462 kts 86°
2026-05-05 21:46 41.37267 -94.79001 18819 ft 465 kts 86°
2026-05-05 21:46 41.37531 -94.74698 19196 ft 468 kts 86°
2026-05-05 21:47 41.37794 -94.70369 19571 ft 471 kts 86°
2026-05-05 21:47 41.38058 -94.66012 19949 ft 473 kts 86°
2026-05-05 21:47 41.38325 -94.61629 20327 ft 476 kts 86°
2026-05-05 21:47 41.38595 -94.57220 20690 ft 479 kts 86°
2026-05-05 21:48 41.38864 -94.52780 21060 ft 482 kts 87°
2026-05-05 21:48 41.39129 -94.48371 21423 ft 485 kts 87°
2026-05-05 21:48 41.39397 -94.43875 21780 ft 489 kts 87°
2026-05-05 21:48 41.39663 -94.39351 22146 ft 492 kts 87°
2026-05-05 21:49 41.39927 -94.34788 22504 ft 494 kts 88°
2026-05-05 21:49 41.40189 -94.30207 22857 ft 497 kts 88°
2026-05-05 21:49 41.40450 -94.25597 23201 ft 500 kts 88°
2026-05-05 21:49 41.40711 -94.20963 23543 ft 503 kts 88°
2026-05-05 21:50 41.40974 -94.16302 23815 ft 506 kts 88°
2026-05-05 21:50 41.41237 -94.11609 24075 ft 510 kts 88°
2026-05-05 21:50 41.41499 -94.06883 24327 ft 513 kts 88°
2026-05-05 21:50 41.41763 -94.02128 24579 ft 516 kts 88°
2026-05-05 21:51 41.42028 -93.97340 24827 ft 520 kts 88°
2026-05-05 21:51 41.42293 -93.92523 25069 ft 523 kts 88°
2026-05-05 21:51 41.42558 -93.87673 25309 ft 526 kts 88°
2026-05-05 21:51 41.42820 -93.82783 25553 ft 529 kts 88°
2026-05-05 21:52 41.43337 -93.72935 26002 ft 536 kts 89°
2026-05-05 21:52 41.43749 -93.67981 26221 ft 541 kts 81°
2026-05-05 21:52 41.44616 -93.63144 26441 ft 545 kts 72°
2026-05-05 21:53 41.45968 -93.58417 26655 ft 547 kts 64°
2026-05-05 21:53 41.47575 -93.53805 26889 ft 550 kts 64°
2026-05-05 21:53 41.49187 -93.49165 27115 ft 553 kts 64°
2026-05-05 21:53 41.50800 -93.44497 27344 ft 556 kts 64°
2026-05-05 21:54 41.52409 -93.39805 27698 ft 555 kts 64°
2026-05-05 21:54 41.54004 -93.35127 28141 ft 553 kts 64°
2026-05-05 21:54 41.55591 -93.30458 28530 ft 552 kts 64°
2026-05-05 21:54 41.57177 -93.25789 28863 ft 552 kts 64°
2026-05-05 21:55 41.58763 -93.21117 29171 ft 552 kts 63°
2026-05-05 21:55 41.60352 -93.16441 29463 ft 553 kts 63°
2026-05-05 21:55 41.61945 -93.11762 29765 ft 553 kts 63°
2026-05-05 21:55 41.63540 -93.07069 30044 ft 554 kts 63°
2026-05-05 21:56 41.65128 -93.02385 30266 ft 555 kts 63°
2026-05-05 21:56 41.66722 -92.97674 30468 ft 557 kts 63°
2026-05-05 21:56 41.68317 -92.92943 30666 ft 559 kts 63°
2026-05-05 21:56 41.69917 -92.88185 30879 ft 560 kts 63°
2026-05-05 21:57 41.71514 -92.83433 31090 ft 562 kts 63°
2026-05-05 21:57 41.73120 -92.78657 31310 ft 563 kts 63°
2026-05-05 21:57 41.74726 -92.73866 31584 ft 564 kts 63°
2026-05-05 21:57 41.76325 -92.69075 31892 ft 563 kts 63°
2026-05-05 21:58 41.77926 -92.64267 32105 ft 565 kts 63°
2026-05-05 21:58 41.79528 -92.59450 32295 ft 567 kts 63°
2026-05-05 21:58 41.81136 -92.54615 32494 ft 569 kts 62°
2026-05-05 21:58 41.82750 -92.49767 32683 ft 570 kts 62°
2026-05-05 21:59 41.84365 -92.44900 32884 ft 572 kts 62°
2026-05-05 21:59 41.85982 -92.40014 33069 ft 574 kts 62°
2026-05-05 21:59 41.87601 -92.35108 33254 ft 576 kts 62°
2026-05-05 21:59 41.89200 -92.30250 33434 ft 578 kts 62°
2026-05-05 22:00 41.90829 -92.25299 33622 ft 579 kts 62°
2026-05-05 22:00 41.92456 -92.20343 33821 ft 581 kts 62°
2026-05-05 22:00 41.94087 -92.15371 33995 ft 582 kts 62°
2026-05-05 22:00 41.95719 -92.10388 34187 ft 583 kts 62°
2026-05-05 22:01 41.97351 -92.05394 34451 ft 582 kts 62°
2026-05-05 22:01 41.98973 -92.00416 34695 ft 581 kts 62°
2026-05-05 22:01 42.00573 -91.95499 34865 ft 580 kts 62°
2026-05-05 22:02 42.03811 -91.85524 34889 ft 577 kts 62°
2026-05-05 22:02 42.07015 -91.75614 34896 ft 577 kts 62°
2026-05-05 22:03 42.10184 -91.65786 34899 ft 577 kts 62°
2026-05-05 22:03 42.13366 -91.55870 34905 ft 577 kts 62°
2026-05-05 22:04 42.16532 -91.45936 34893 ft 577 kts 62°
2026-05-05 22:04 42.19696 -91.36006 34941 ft 577 kts 62°
2026-05-05 22:05 42.22859 -91.26063 34915 ft 576 kts 62°
2026-05-05 22:05 42.26005 -91.16112 34905 ft 576 kts 62°
2026-05-05 22:06 42.29146 -91.06155 34883 ft 576 kts 62°
2026-05-05 22:06 42.32279 -90.96195 34894 ft 576 kts 62°
2026-05-05 22:07 42.35401 -90.86220 34901 ft 576 kts 62°
2026-05-05 22:07 42.38507 -90.76231 34886 ft 576 kts 63°
2026-05-05 22:08 42.41522 -90.66168 34914 ft 577 kts 65°
2026-05-05 22:08 42.44166 -90.56001 34900 ft 576 kts 68°
2026-05-05 22:09 42.46661 -90.45678 34905 ft 577 kts 68°
2026-05-05 22:09 42.49211 -90.35380 34895 ft 576 kts 67°
2026-05-05 22:10 42.51851 -90.25111 34895 ft 576 kts 66°
2026-05-05 22:10 42.54494 -90.14854 34897 ft 576 kts 67°
2026-05-05 22:11 42.57087 -90.04574 34902 ft 577 kts 68°
2026-05-05 22:11 42.59660 -89.94251 34894 ft 577 kts 68°
2026-05-05 22:12 42.62220 -89.83941 34908 ft 575 kts 68°
2026-05-05 22:12 42.64747 -89.73737 34877 ft 572 kts 68°
2026-05-05 22:13 42.67296 -89.63486 34877 ft 572 kts 68°
2026-05-05 22:13 42.69831 -89.53247 34876 ft 572 kts 68°
2026-05-05 22:14 42.72348 -89.42969 34881 ft 572 kts 68°
2026-05-05 22:14 42.74850 -89.32688 34887 ft 572 kts 68°
2026-05-05 22:15 42.77353 -89.22400 34876 ft 572 kts 68°
2026-05-05 22:15 42.79431 -89.13840 34884 ft 572 kts 68°
2026-05-05 22:16 42.81917 -89.03547 34882 ft 572 kts 68°
2026-05-05 22:16 42.84390 -88.93236 34888 ft 572 kts 68°
2026-05-05 22:17 42.86851 -88.82927 34889 ft 572 kts 68°
2026-05-05 22:17 42.89309 -88.72608 34897 ft 571 kts 68°
2026-05-05 22:18 42.91751 -88.62298 34881 ft 571 kts 68°
2026-05-05 22:18 42.94174 -88.51990 34878 ft 571 kts 69°
2026-05-05 22:19 42.96580 -88.41725 34860 ft 571 kts 68°
2026-05-05 22:19 42.98991 -88.31402 34867 ft 570 kts 69°
2026-05-05 22:20 43.01390 -88.21074 34925 ft 570 kts 69°
2026-05-05 22:20 43.03782 -88.10761 34908 ft 568 kts 69°
2026-05-05 22:21 43.06155 -88.00479 34903 ft 567 kts 69°
2026-05-05 22:21 43.08506 -87.90206 34901 ft 565 kts 69°
2026-05-05 22:22 43.10848 -87.79946 34893 ft 565 kts 69°
2026-05-05 22:22 43.13178 -87.69687 34850 ft 564 kts 69°
2026-05-05 22:23 43.15494 -87.59426 34861 ft 564 kts 69°
2026-05-05 22:23 43.17812 -87.49151 34875 ft 564 kts 69°
2026-05-05 22:24 43.20116 -87.38883 34938 ft 563 kts 70°
2026-05-05 22:24 43.22402 -87.28642 34866 ft 560 kts 70°
2026-05-05 22:25 43.24658 -87.18427 34874 ft 559 kts 70°
2026-05-05 22:25 43.26174 -87.07966 34872 ft 562 kts 86°
2026-05-05 22:26 43.26581 -86.97245 34875 ft 562 kts 87°
2026-05-05 22:26 43.26992 -86.86538 34871 ft 562 kts 87°
2026-05-05 22:27 43.27406 -86.75834 34887 ft 561 kts 87°
2026-05-05 22:27 43.27804 -86.65136 34889 ft 561 kts 87°
2026-05-05 22:28 43.28185 -86.54437 34888 ft 561 kts 87°
2026-05-05 22:28 43.28554 -86.43752 34897 ft 561 kts 87°
2026-05-05 22:29 43.28919 -86.33053 34897 ft 560 kts 87°
2026-05-05 22:29 43.29272 -86.22395 34713 ft 556 kts 87°
2026-05-05 22:29 43.29440 -86.17088 34851 ft 558 kts 87°
2026-05-05 22:30 43.29609 -86.11766 34889 ft 558 kts 87°
2026-05-05 22:30 43.29916 -86.01189 34865 ft 558 kts 89°
2026-05-05 22:31 43.30020 -85.90525 34867 ft 558 kts 90°
2026-05-05 22:31 43.30011 -85.79871 34867 ft 558 kts 90°
2026-05-05 22:32 43.30024 -85.69220 34867 ft 558 kts 90°
2026-05-05 22:32 43.30083 -85.58568 34349 ft 559 kts 90°
2026-05-05 22:32 43.30118 -85.53184 33310 ft 567 kts 90°
2026-05-05 22:33 43.30148 -85.47763 32472 ft 568 kts 91°
2026-05-05 22:33 43.30170 -85.42336 31665 ft 567 kts 91°
2026-05-05 22:33 43.30182 -85.36932 30980 ft 563 kts 92°
2026-05-05 22:33 43.30178 -85.31555 30160 ft 562 kts 95°
2026-05-05 22:34 43.29812 -85.26252 29261 ft 555 kts 105°
2026-05-05 22:34 43.28960 -85.21174 27815 ft 541 kts 113°
2026-05-05 22:34 43.27624 -85.16396 26205 ft 529 kts 123°
2026-05-05 22:34 43.25894 -85.12125 25678 ft 492 kts 131°
2026-05-05 22:35 43.24099 -85.08275 25222 ft 473 kts 131°
2026-05-05 22:35 43.22323 -85.04441 24560 ft 477 kts 131°
2026-05-05 22:35 43.20565 -85.00647 23983 ft 477 kts 131°
2026-05-05 22:35 43.18781 -84.96813 23351 ft 478 kts 131°
2026-05-05 22:36 43.17010 -84.93019 23098 ft 465 kts 131°
2026-05-05 22:36 43.15291 -84.89341 22857 ft 453 kts 131°
2026-05-05 22:36 43.13602 -84.85740 22474 ft 445 kts 131°
2026-05-05 22:36 43.11906 -84.82230 22211 ft 440 kts 133°
2026-05-05 22:37 43.10182 -84.78789 21919 ft 434 kts 133°
2026-05-05 22:37 43.08462 -84.75418 21708 ft 431 kts 134°
2026-05-05 22:37 43.06746 -84.72076 21362 ft 428 kts 133°
2026-05-05 22:37 43.05040 -84.68750 21006 ft 425 kts 133°
2026-05-05 22:38 43.03354 -84.65445 20658 ft 422 kts 133°
2026-05-05 22:38 43.01693 -84.62165 20316 ft 418 kts 133°
2026-05-05 22:38 43.00049 -84.58903 19986 ft 415 kts 132°
2026-05-05 22:38 42.98438 -84.55704 19652 ft 413 kts 132°
2026-05-05 22:39 42.96810 -84.52481 19298 ft 411 kts 132°
2026-05-05 22:39 42.95183 -84.49265 18972 ft 409 kts 132°
2026-05-05 22:39 42.93574 -84.46075 18603 ft 407 kts 131°
2026-05-05 22:39 42.91994 -84.42894 18344 ft 405 kts 131°
2026-05-05 22:40 42.90425 -84.39704 17946 ft 404 kts 131°
2026-05-05 22:40 42.88867 -84.36530 17554 ft 401 kts 131°
2026-05-05 22:40 42.87324 -84.33395 17154 ft 396 kts 131°
2026-05-05 22:40 42.85791 -84.30288 16795 ft 393 kts 131°
2026-05-05 22:41 42.84209 -84.27119 16439 ft 417 kts 131°
2026-05-05 22:41 42.82539 -84.23824 16068 ft 426 kts 131°
2026-05-05 22:41 42.80881 -84.20527 15768 ft 416 kts 130°
2026-05-05 22:41 42.79281 -84.17295 15523 ft 405 kts 130°
2026-05-05 22:42 42.77740 -84.14159 15392 ft 392 kts 130°
2026-05-05 22:42 42.76255 -84.11133 14868 ft 380 kts 130°
2026-05-05 22:42 42.74798 -84.08181 14253 ft 368 kts 130°
2026-05-05 22:42 42.73397 -84.05352 13853 ft 354 kts 131°
2026-05-05 22:43 42.72014 -84.02581 13396 ft 354 kts 131°
2026-05-05 22:43 42.70634 -83.99838 13066 ft 349 kts 131°
2026-05-05 22:43 42.69308 -83.97090 12769 ft 348 kts 125°
2026-05-05 22:43 42.68342 -83.94053 12508 ft 353 kts 112°
2026-05-05 22:44 42.67725 -83.90822 12241 ft 353 kts 109°
2026-05-05 22:44 42.67127 -83.87590 11857 ft 352 kts 109°
2026-05-05 22:44 42.66536 -83.84422 11543 ft 347 kts 109°
2026-05-05 22:44 42.65947 -83.81277 11305 ft 341 kts 109°
2026-05-05 22:45 42.65359 -83.78164 10930 ft 339 kts 109°
2026-05-05 22:45 42.64769 -83.75070 10562 ft 338 kts 109°
2026-05-05 22:45 42.64179 -83.71989 10196 ft 336 kts 110°
2026-05-05 22:45 42.63591 -83.68925 9929 ft 332 kts 110°
2026-05-05 22:46 42.63022 -83.65931 9807 ft 323 kts 110°
2026-05-05 22:46 42.62469 -83.63030 9491 ft 312 kts 111°
2026-05-05 22:46 42.61894 -83.60204 9099 ft 308 kts 111°
2026-05-05 22:46 42.61302 -83.57443 8714 ft 302 kts 111°
2026-05-05 22:47 42.60715 -83.54726 8173 ft 297 kts 108°
2026-05-05 22:47 42.60525 -83.52007 8016 ft 290 kts 85°
2026-05-05 22:47 42.60852 -83.49298 7938 ft 289 kts 81°
2026-05-05 22:47 42.61213 -83.46600 7995 ft 291 kts 81°
2026-05-05 22:48 42.61575 -83.43907 7991 ft 291 kts 81°
2026-05-05 22:48 42.61939 -83.41203 8008 ft 291 kts 80°
2026-05-05 22:48 42.62303 -83.38496 8007 ft 291 kts 81°
2026-05-05 22:48 42.62667 -83.35790 8007 ft 291 kts 81°
2026-05-05 22:49 42.63032 -83.33078 8008 ft 292 kts 81°
2026-05-05 22:49 42.63394 -83.30367 8007 ft 292 kts 81°
2026-05-05 22:49 42.63754 -83.27656 8006 ft 291 kts 81°
2026-05-05 22:49 42.64111 -83.24952 7997 ft 292 kts 81°
2026-05-05 22:50 42.64445 -83.22233 7992 ft 292 kts 87°
2026-05-05 22:50 42.64369 -83.19508 7997 ft 287 kts 105°
2026-05-05 22:50 42.63773 -83.16965 7997 ft 280 kts 121°
2026-05-05 22:50 42.62897 -83.14620 7987 ft 275 kts 131°
2026-05-05 22:51 42.61682 -83.12689 7997 ft 265 kts 147°
2026-05-05 22:51 42.60273 -83.11096 7994 ft 260 kts 156°
2026-05-05 22:51 42.58669 -83.10188 7997 ft 243 kts 179°
2026-05-05 22:51 42.57021 -83.10163 7777 ft 234 kts 199°
2026-05-05 22:52 42.55554 -83.10926 7440 ft 222 kts 216°
2026-05-05 22:52 42.54212 -83.11952 7135 ft 220 kts 215°
2026-05-05 22:52 42.52873 -83.12956 6838 ft 220 kts 215°
2026-05-05 22:52 42.51532 -83.13954 6570 ft 220 kts 215°
2026-05-05 22:53 42.50191 -83.14948 6352 ft 218 kts 214°
2026-05-05 22:53 42.48883 -83.15911 6173 ft 210 kts 215°
2026-05-05 22:53 42.47604 -83.16861 5906 ft 209 kts 215°
2026-05-05 22:53 42.46327 -83.17812 5636 ft 210 kts 214°
2026-05-05 22:54 42.45039 -83.18770 5361 ft 212 kts 214°
2026-05-05 22:54 42.43760 -83.19721 5090 ft 213 kts 213°
2026-05-05 22:54 42.42467 -83.20680 4829 ft 209 kts 213°
2026-05-05 22:54 42.41226 -83.21600 4556 ft 199 kts 213°
2026-05-05 22:55 42.40043 -83.22476 4300 ft 186 kts 214°
2026-05-05 22:55 42.38964 -83.23274 4058 ft 169 kts 214°
2026-05-05 22:55 42.37967 -83.24015 3855 ft 161 kts 214°
2026-05-05 22:55 42.36992 -83.24740 3645 ft 159 kts 214°
2026-05-05 22:56 42.36025 -83.25458 3449 ft 158 kts 214°
2026-05-05 22:56 42.35064 -83.26170 3249 ft 157 kts 214°
2026-05-05 22:56 42.34105 -83.26880 3049 ft 156 kts 213°
2026-05-05 22:56 42.33151 -83.27587 2843 ft 156 kts 213°
2026-05-05 22:57 42.32204 -83.28288 2640 ft 155 kts 213°
2026-05-05 22:57 42.31257 -83.28988 2450 ft 154 kts 213°
2026-05-05 22:57 42.30316 -83.29684 2246 ft 154 kts 213°
2026-05-05 22:57 42.29380 -83.30375 2050 ft 153 kts 213°
2026-05-05 22:58 42.28448 -83.31065 1852 ft 152 kts 212°
2026-05-05 22:58 42.27524 -83.31747 1657 ft 152 kts 213°
2026-05-05 22:58 42.26601 -83.32428 1452 ft 150 kts 212°
2026-05-05 22:58 42.25686 -83.33106 1229 ft 151 kts 210°
2026-05-05 22:59 42.24766 -83.33780 1046 ft 151 kts 210°
2026-05-05 22:59 42.23852 -83.34457 849 ft 150 kts 210°
2026-05-05 22:59 42.23245 -83.34908 734 ft 150 kts 210°
2026-05-05 22:59 42.22377 -83.35549 650 ft 127 kts 210°
2026-05-05 23:00 42.21470 -83.36151 646 ft 26 kts 176°
2026-05-05 23:00 42.21312 -83.36170 646 ft 14 kts 199°
2026-05-05 23:00 42.21253 -83.36207 646 ft 13 kts 208°
2026-05-05 23:01 42.21174 -83.36268 645 ft 13 kts 210°
2026-05-05 23:01 42.21097 -83.36324 645 ft 12 kts 206°
2026-05-05 23:01 42.21025 -83.36357 645 ft 10 kts 173°
2026-05-05 23:01 42.20991 -83.36298 646 ft 7 kts 115°
2026-05-05 23:02 42.20971 -83.36246 646 ft 5 kts 119°
2026-05-05 23:02 42.20961 -83.36222 646 ft 0 kts 119°